Lucknow, India

8:28 PM IST on September 27, 2016 (GMT +0530)
Lucknow

Weather History for VILK - November, 2013

Change the Weather History Date:

Saturday, November 2, 2013

  Actual Average Record
Temperature  
Mean Temperature 76 °F -  
Max Temperature 89 °F 83 °F 91 °F (2015)
Min Temperature 64 °F 63 °F 55 °F (2004)
Cooling Degree Days 12    
Growing Degree Days 26 (Base 50)    
Moisture  
Dew Point 67 °F    
Average Humidity 69    
Maximum Humidity 94    
Minimum Humidity 30    
Precipitation  
Precipitation 0.00 in - - ()
Sea Level Pressure  
Sea Level Pressure 29.90 in    
Wind  
Wind Speed 3 mph ()    
Max Wind Speed 8 mph    
Max Gust Speed -    
Visibility 1.4 miles    
Events Fog    
Averages and records for this station are not official NWS values.
T = Trace of Precipitation, MM = Missing Value Source: Averaged Metar Reports

Daily Weather History Graph

Daily Weather History Graph

Search for Another Location

Airport or City:

Trip Planner

Search our weather history database for the weather conditions in past years. The results will help you decide how hot, cold, wet, or windy it might be!

Date:

Astronomy

Nov. 02, 2013 Rise Set
Actual Time 6:16 AM IST 5:23 PM IST
Civil Twilight 5:52 AM IST 5:47 PM IST
Nautical Twilight 5:25 AM IST 6:14 PM IST
Astronomical Twilight 4:57 AM IST 6:41 PM IST
Moon 4:49 AM IST (11/2) 4:31 PM IST (11/2)
Length of Visible Light 11h 54m
Length of Day
11h 06m
Waning Crescent, 2% of the Moon is Illuminated
Nov 2
Waning Crescent
Nov 3
New
Nov 10
First Quarter
Nov 17
Full
Nov 26
Last Quarter

Hourly Weather History & Observations

Time (IST) Temp. Heat Index Dew Point Humidity Pressure Visibility Wind Dir Wind Speed Gust Speed Precip Events Conditions
12:00 AM 69.8 °F - 66.2 °F 88% 29.89 in 1.9 mi Calm Calm - N/A   Mist
1:00 AM 69.8 °F - 66.2 °F 88% 29.89 in 1.6 mi NNE 4.6 mph - N/A   Mist
2:00 AM 68.0 °F - 66.2 °F 94% 29.89 in 1.6 mi East 2.3 mph - N/A   Mist
2:30 AM 69 °F - 67 °F 92% 29.88 in 1 mi ESE 3.5 mph - -   Mist
3:00 AM 69.8 °F - 66.2 °F 88% 29.86 in 1.2 mi ESE 3.5 mph - N/A   Mist
4:00 AM 69.8 °F - 68.0 °F 94% 29.86 in 0.4 mi Variable 2.3 mph - N/A Fog Fog
5:30 AM 68 °F - 67 °F 94% 29.91 in 1 mi North 8.1 mph - -   Mist
5:30 AM 68.0 °F - 66.2 °F 94% 29.89 in 0.9 mi North 8.1 mph - N/A   Mist
6:30 AM 69.8 °F - 68.0 °F 94% 29.92 in 0.2 mi Variable 2.3 mph - N/A Fog Fog
7:00 AM 69.8 °F - 66.2 °F 88% 29.92 in 0.2 mi Variable 2.3 mph - N/A Fog Fog
7:30 AM 69.8 °F - 68.0 °F 94% 29.92 in 0.3 mi Variable 2.3 mph - N/A Fog Fog
8:30 AM 74 °F - 70 °F 85% 29.96 in 0 mi 2.3 mph - -   Mist
8:30 AM 73.4 °F - 69.8 °F 88% 29.95 in 0.7 mi Variable 2.3 mph - N/A   Mist
9:30 AM 78.8 °F - 69.8 °F 74% 29.95 in 1.2 mi Variable 2.3 mph - N/A   Mist
10:00 AM 80.6 °F 83.9 °F 69.8 °F 70% 29.95 in 1.6 mi Variable 2.3 mph - N/A   Haze
10:30 AM 82.4 °F 86.3 °F 69.8 °F 66% 29.95 in 1.6 mi SE 3.5 mph - N/A   Haze
11:00 AM 82.4 °F 86.3 °F 69.8 °F 66% 29.95 in 1.6 mi ESE 3.5 mph - N/A   Haze
11:30 AM 87 °F - 68 °F 44% 29.93 in 1 mi 2.3 mph - -   Haze
12:00 PM 87.8 °F 91.4 °F 68.0 °F 52% 29.92 in 1.9 mi Variable 2.3 mph - N/A   Haze
12:30 PM 87.8 °F 90.4 °F 66.2 °F 49% 29.89 in 1.9 mi Variable 2.3 mph - N/A   Haze
1:00 PM 87.8 °F 90.4 °F 66.2 °F 49% 29.89 in 1.9 mi Variable 2.3 mph - N/A   Haze
1:30 PM 87.8 °F 89.4 °F 64.4 °F 46% 29.86 in 1.9 mi Variable 2.3 mph - N/A   Haze
2:00 PM 87.8 °F 89.4 °F 64.4 °F 46% 29.86 in 1.9 mi WNW 3.5 mph - N/A   Haze
2:30 PM 89 °F - 62 °F 30% 29.86 in 1 mi West 4.6 mph - -   Haze
3:00 PM 89.6 °F 90.1 °F 62.6 °F 40% 29.86 in 1.9 mi West 4.6 mph - N/A   Haze
3:30 PM 89.6 °F 90.1 °F 62.6 °F 40% 29.86 in 2.5 mi NW 4.6 mph - N/A   Haze
4:00 PM 87.8 °F 88.5 °F 62.6 °F 43% 29.83 in 1.9 mi Variable 2.3 mph - N/A   Haze
4:30 PM 87.8 °F 88.5 °F 62.6 °F 43% 29.83 in 1.9 mi Variable 2.3 mph - N/A   Haze
5:00 PM 86.0 °F 86.1 °F 60.8 °F 43% 29.86 in 1.9 mi Variable 2.3 mph - N/A   Haze
5:30 PM 81 °F - 68 °F 57% 29.86 in 1 mi NE 3.5 mph - -   Haze
5:30 PM 80.6 °F 83.2 °F 68.0 °F 65% 29.86 in 1.9 mi NE 3.5 mph - N/A   Haze
6:00 PM 80.6 °F 83.2 °F 68.0 °F 65% 29.86 in 1.9 mi Variable 2.3 mph - N/A   Haze
6:30 PM 80.6 °F 83.2 °F 68.0 °F 65% 29.86 in 1.9 mi Variable 2.3 mph - N/A   Haze
7:00 PM 78.8 °F - 68.0 °F 69% 29.86 in 1.9 mi NE 3.5 mph - N/A   Haze
8:00 PM 78.8 °F - 66.2 °F 65% 29.92 in 1.9 mi Calm Calm - N/A   Haze
8:30 PM 74 °F - 66 °F 70% 29.93 in 1 mi Calm Calm - -   Haze
8:30 PM 75.2 °F - 66.2 °F 73% 29.92 in 1.9 mi Calm Calm - N/A   Haze
9:00 PM 73.4 °F - 66.2 °F 78% 29.92 in 1.9 mi Calm Calm - N/A   Haze
10:00 PM 73.4 °F - 66.2 °F 78% 29.92 in 1.9 mi NW 3.5 mph - N/A   Haze
11:00 PM 73.4 °F - 66.2 °F 78% 29.92 in 1.9 mi NW 3.5 mph - N/A   Haze
11:30 PM 72 °F - 65 °F 74% 29.94 in 1 mi NW 3.5 mph - -   Haze